Location: *
(40.7873°S, 98.7174°E)
Time: 22:22:53
(UTC+00:00)

Cosmos 192 - Pass Details

Date: 26 September 2022
Orbit: 701 x 711 km, 74.0° (Epoch: 05 December)

Event Time Altitude Azimuth Distance (km) Brightness Sun altitude
Rises 21:32:48 0° 203° (SSW) 3,135 7.6 -18.3°
Reaches altitude 10° 21:35:10 10° 206° (SSW) 2,210 6.8 -17.8°
Maximum altitude 21:40:06 62° 286° (WNW) 804 4.3 -16.9°
Drops below altitude 10° 21:44:58 10° 5° (N) 2,187 6.7 -16.1°
Sets 21:47:18 0° 8° (N) 3,099 7.6 -15.6°
